Time,TemperatureF,DewpointF,PressureIn,WindDirection,WindDirectionDegrees,WindSpeedMPH,WindSpeedGustMPH,Humidity,HourlyPrecipIn,Conditions,Clouds,dailyrainin,SoftwareType,DateUTC
2013-08-02 00:02:00,62.0,51.0,-100.00,North,-999,0.0,-999.0,68,0.00,,,0.02,,2013-08-02 06:02:00,
2013-08-02 00:12:00,62.0,51.0,-100.00,North,-999,0.0,-999.0,68,0.00,,,0.02,,2013-08-02 06:12:00,
2013-08-02 00:43:00,62.0,51.0,-100.00,North,-999,0.0,-999.0,68,0.00,,,0.02,,2013-08-02 06:43:00,
2013-08-02 00:52:00,62.0,51.0,-100.00,North,-999,0.0,-999.0,68,0.00,,,0.02,,2013-08-02 06:52:00,
2013-08-02 01:02:00,62.0,51.0,-100.00,North,-999,0.0,-999.0,68,0.00,,,0.02,,2013-08-02 07:02:00,
2013-08-02 01:12:00,62.0,51.0,-100.00,North,-999,0.0,-999.0,68,0.00,,,0.02,,2013-08-02 07:12:00,
2013-08-02 01:44:00,61.0,51.0,-100.00,North,-999,0.0,-999.0,69,0.00,,,0.02,,2013-08-02 07:44:00,
2013-08-02 01:53:00,61.0,51.0,-100.00,North,-999,0.0,-999.0,69,0.00,,,0.02,,2013-08-02 07:53:00,
2013-08-02 02:02:00,61.0,51.0,-100.00,North,-999,0.0,-999.0,69,0.00,,,0.02,,2013-08-02 08:02:00,
2013-08-02 02:12:00,61.0,51.0,-100.00,North,-999,0.0,-999.0,69,0.00,,,0.02,,2013-08-02 08:12:00,
2013-08-02 02:43:00,60.0,49.0,-100.00,North,-999,0.0,-999.0,67,0.00,,,0.02,,2013-08-02 08:43:00,
2013-08-02 02:54:00,60.0,49.0,-100.00,North,-999,0.0,-999.0,67,0.00,,,0.02,,2013-08-02 08:54:00,
2013-08-02 03:02:00,60.0,49.0,-100.00,North,-999,0.0,-999.0,67,0.00,,,0.02,,2013-08-02 09:02:00,
2013-08-02 03:12:00,60.0,49.0,-100.00,North,-999,0.0,-999.0,67,0.00,,,0.02,,2013-08-02 09:12:00,
2013-08-02 03:43:00,56.0,48.0,-100.00,North,-999,0.0,-999.0,74,0.00,,,0.02,,2013-08-02 09:43:00,
2013-08-02 03:53:00,56.0,48.0,-100.00,North,-999,0.0,-999.0,74,0.00,,,0.02,,2013-08-02 09:53:00,
2013-08-02 04:02:00,56.0,48.0,-100.00,North,-999,0.0,-999.0,74,0.00,,,0.02,,2013-08-02 10:02:00,
2013-08-02 04:12:00,56.0,48.0,-100.00,North,-999,0.0,-999.0,74,0.00,,,0.02,,2013-08-02 10:12:00,
2013-08-02 04:43:00,56.0,47.0,-100.00,North,-999,0.0,-999.0,73,0.00,,,0.02,,2013-08-02 10:43:00,
2013-08-02 04:52:00,56.0,47.0,-100.00,North,-999,0.0,-999.0,73,0.00,,,0.02,,2013-08-02 10:52:00,
2013-08-02 05:02:00,56.0,47.0,-100.00,North,-999,0.0,-999.0,73,0.00,,,0.02,,2013-08-02 11:02:00,
2013-08-02 05:12:00,56.0,47.0,-100.00,North,-999,0.0,-999.0,73,0.00,,,0.02,,2013-08-02 11:12:00,
2013-08-02 05:42:00,55.0,42.0,-100.00,North,-999,0.0,-999.0,62,0.00,,,0.02,,2013-08-02 11:42:00,
2013-08-02 05:52:00,55.0,42.0,-100.00,North,-999,0.0,-999.0,62,0.00,,,0.02,,2013-08-02 11:52:00,
2013-08-02 06:02:00,55.0,42.0,-100.00,North,-999,0.0,-999.0,62,0.00,,,0.02,,2013-08-02 12:02:00,
2013-08-02 06:12:00,55.0,42.0,-100.00,North,-999,0.0,-999.0,62,0.00,,,0.02,,2013-08-02 12:12:00,
2013-08-02 06:43:00,57.0,44.0,-100.00,North,-999,0.0,-999.0,61,0.00,,,0.02,,2013-08-02 12:43:00,
2013-08-02 06:52:00,57.0,44.0,-100.00,North,-999,0.0,-999.0,61,0.00,,,0.02,,2013-08-02 12:52:00,
2013-08-02 07:02:00,57.0,44.0,-100.00,North,-999,0.0,-999.0,61,0.00,,,0.02,,2013-08-02 13:02:00,
2013-08-02 07:12:00,57.0,44.0,-100.00,North,-999,0.0,-999.0,61,0.00,,,0.02,,2013-08-02 13:12:00,
2013-08-02 09:43:00,61.0,49.0,-100.00,North,-999,0.0,-999.0,65,0.00,,,-99.99,,2013-08-02 15:43:00,
2013-08-02 09:52:00,61.0,49.0,-100.00,North,-999,0.0,-999.0,65,0.00,,,-99.99,,2013-08-02 15:52:00,
2013-08-02 10:02:00,61.0,49.0,-100.00,North,-999,0.0,-999.0,65,0.00,,,-99.99,,2013-08-02 16:02:00,
2013-08-02 10:12:00,61.0,49.0,-100.00,North,-999,0.0,-999.0,65,0.00,,,-99.99,,2013-08-02 16:12:00,
2013-08-02 10:42:00,71.0,50.0,-100.00,North,-999,0.0,-999.0,47,-99.99,,,0.02,,2013-08-02 16:42:00,
2013-08-02 10:53:00,71.0,50.0,-100.00,North,-999,0.0,-999.0,47,-99.99,,,0.02,,2013-08-02 16:53:00,
2013-08-02 11:02:00,71.0,50.0,-100.00,North,-999,0.0,-999.0,47,-99.99,,,0.02,,2013-08-02 17:02:00,
2013-08-02 11:12:00,71.0,50.0,-100.00,North,-999,0.0,-999.0,47,-99.99,,,0.02,,2013-08-02 17:12:00,
2013-08-02 11:43:00,73.0,52.0,-100.00,North,-999,0.0,-999.0,47,0.00,,,0.02,,2013-08-02 17:43:00,
2013-08-02 11:52:00,73.0,52.0,-100.00,North,-999,0.0,-999.0,47,0.00,,,0.02,,2013-08-02 17:52:00,
2013-08-02 12:02:00,73.0,52.0,-100.00,North,-999,0.0,-999.0,47,0.00,,,0.02,,2013-08-02 18:02:00,
2013-08-02 12:12:00,73.0,52.0,-100.00,North,-999,0.0,-999.0,47,0.00,,,0.02,,2013-08-02 18:12:00,
2013-08-02 13:43:00,81.0,29.0,-100.00,North,-999,0.0,-999.0,15,0.00,,,0.02,,2013-08-02 19:43:00,
2013-08-02 13:52:00,81.0,29.0,-100.00,North,-999,0.0,-999.0,15,0.00,,,0.02,,2013-08-02 19:52:00,
2013-08-02 14:02:00,81.0,29.0,-100.00,North,-999,0.0,-999.0,15,0.00,,,0.02,,2013-08-02 20:02:00,
2013-08-02 14:12:00,81.0,29.0,-100.00,North,-999,0.0,-999.0,15,0.00,,,0.02,,2013-08-02 20:12:00,
2013-08-02 14:43:00,82.0,31.0,-100.00,North,-999,0.0,-999.0,16,0.00,,,0.00,,2013-08-02 20:43:00,
2013-08-02 14:52:00,82.0,31.0,-100.00,North,-999,0.0,-999.0,16,0.00,,,0.00,,2013-08-02 20:52:00,
2013-08-02 15:02:00,82.0,31.0,-100.00,North,-999,0.0,-999.0,16,0.00,,,0.00,,2013-08-02 21:02:00,
2013-08-02 15:12:00,82.0,31.0,-100.00,North,-999,0.0,-999.0,16,0.00,,,0.00,,2013-08-02 21:12:00,
2013-08-02 16:52:00,83.0,31.0,-100.00,North,-999,0.0,-999.0,15,0.01,,,0.01,,2013-08-02 22:52:00,
2013-08-02 17:02:00,83.0,31.0,-100.00,North,-999,0.0,-999.0,15,0.01,,,0.01,,2013-08-02 23:02:00,
2013-08-02 17:12:00,83.0,31.0,-100.00,North,-999,0.0,-999.0,15,0.01,,,0.01,,2013-08-02 23:12:00,
2013-08-02 17:43:00,83.0,29.0,-100.00,North,-999,0.0,-999.0,14,0.00,,,0.01,,2013-08-02 23:43:00,
2013-08-02 17:53:00,83.0,29.0,-100.00,North,-999,0.0,-999.0,14,0.00,,,0.01,,2013-08-02 23:53:00,
2013-08-02 18:02:00,83.0,29.0,-100.00,North,-999,0.0,-999.0,14,0.00,,,0.01,,2013-08-03 00:02:00,
2013-08-02 18:12:00,83.0,29.0,-100.00,North,-999,0.0,-999.0,14,0.00,,,0.01,,2013-08-03 00:12:00,
2013-08-02 18:52:00,83.0,25.0,-100.00,North,-999,0.0,-999.0,12,0.00,,,0.01,,2013-08-03 00:52:00,
2013-08-02 19:02:00,83.0,25.0,-100.00,North,-999,0.0,-999.0,12,0.00,,,0.01,,2013-08-03 01:02:00,
2013-08-02 19:12:00,83.0,25.0,-100.00,North,-999,0.0,-999.0,12,0.00,,,0.01,,2013-08-03 01:12:00,
2013-08-02 19:42:00,79.0,36.0,-100.00,North,-999,0.0,-999.0,21,0.00,,,0.01,,2013-08-03 01:42:00,
2013-08-02 19:53:00,79.0,36.0,-100.00,North,-999,0.0,-999.0,21,0.00,,,0.01,,2013-08-03 01:53:00,
2013-08-02 20:02:00,79.0,36.0,-100.00,North,-999,0.0,-999.0,21,0.00,,,0.01,,2013-08-03 02:02:00,
2013-08-02 20:12:00,79.0,36.0,-100.00,North,-999,0.0,-999.0,21,0.00,,,0.01,,2013-08-03 02:12:00,
2013-08-02 20:43:00,74.0,45.0,-100.00,North,-999,0.0,-999.0,35,0.00,,,0.01,,2013-08-03 02:43:00,
2013-08-02 20:52:00,74.0,45.0,-100.00,North,-999,0.0,-999.0,35,0.00,,,0.01,,2013-08-03 02:52:00,
2013-08-02 21:02:00,74.0,45.0,-100.00,North,-999,0.0,-999.0,35,0.00,,,0.01,,2013-08-03 03:02:00,
2013-08-02 21:12:00,74.0,45.0,-100.00,North,-999,0.0,-999.0,35,0.00,,,0.01,,2013-08-03 03:12:00,
2013-08-02 21:43:00,70.0,35.0,-100.00,North,-999,0.0,-999.0,28,0.00,,,0.01,,2013-08-03 03:43:00,
2013-08-02 21:53:00,70.0,35.0,-100.00,North,-999,0.0,-999.0,28,0.00,,,0.01,,2013-08-03 03:53:00,
2013-08-02 22:02:00,70.0,35.0,-100.00,North,-999,0.0,-999.0,28,0.00,,,0.01,,2013-08-03 04:02:00,
2013-08-02 22:12:00,70.0,35.0,-100.00,North,-999,0.0,-999.0,28,0.00,,,0.01,,2013-08-03 04:12:00,
2013-08-02 22:53:00,68.0,35.0,-100.00,North,-999,0.0,-999.0,29,0.00,,,0.01,,2013-08-03 04:53:00,
2013-08-02 23:02:00,68.0,35.0,-100.00,North,-999,0.0,-999.0,29,0.00,,,0.01,,2013-08-03 05:02:00,
2013-08-02 23:12:00,68.0,35.0,-100.00,North,-999,0.0,-999.0,29,0.00,,,0.01,,2013-08-03 05:12:00,
2013-08-02 23:42:00,64.0,35.0,-100.00,North,-999,0.0,-999.0,34,0.00,,,0.01,,2013-08-03 05:42:00,
2013-08-02 23:52:00,64.0,35.0,-100.00,North,-999,0.0,-999.0,34,0.00,,,0.01,,2013-08-03 05:52:00,